THORAD DELTA 1 DEB, 13528

Orbit data source: Space-Track

THORAD DELTA 1 DEB, 13528 is space debris in LEO originally from a launch on Fri, 15 Nov 1974 UTC launched from the Air Force Western Test Range (AFWTR). Debris objects in space refer to the collection of defunct objects orbiting the Earth. Examples of debris include non-operational satellites, rocket bodies, and fragments generated from explosions, collisions, or faulty payload assembly.

Loading next visibility...
Identifier
13528, 1974-089EP
Orbit
LEO
Country
Flag of USUS
Related business
Manufacturer
Unknown
Mission
Spacecraft
Bus & Motor
Unknown
Mass
Unknown
Launch date (UTC)
1974-11-15 (52 years ago)
Launch vehicle
Unknown
Launch site
Air Force Western Test Range (AFWTR)
Object type
Payload
Rocket body
Debris
Shape & HBR
Unknown shape, 0.1 m
Radar Cross Section
Medium (>0.1 m² and <1 m²)

Expand to show TLE details & history
Last TLE update: 2 days ago

TLE from 2 days ago
0 THORAD DELTA 1 DEB
1 13528U 74089EP  26206.35242249  .00000420  00000-0  20887-2 0  9997
2 13528 103.1416 227.7139 0075135   3.8542   9.0408 12.79508507134644
Epoch: 2026-07-25T08:27Z
TLE epoch observation values (Epoch: 2026-07-25T08:27:29.303Z)
Latitude
12.65152°
Longitude
154.78684°
Altitude
1,287.962 km
Speed
7.24 km/s
True Right ascension
14h 58m 53s
True Declination
12° 34' 60"
Sunlit
Object was in daylight at epoch
Visualization orbit readout
Latitude
Unknown
Longitude
Unknown
Altitude
Unknown
Speed
Unknown
Apparent Right ascension
Unknown
Apparent Declination
Unknown
Sunlit
N/A
Visualization observer readout
Local Sidereal Time
21:44:38
Azimuth
Unknown
Elevation
Unknown
Doppler factor
Unknown
Orbital elements
Apogee altitude
1,399.04 km
Perigee altitude
1,283.044 km
Semi-major axis
7,719.179 km
Eccentricity
0.00751
Inclination
103.1416°
RAAN
227.7139°
Arg. of periapsis
3.8542°
True anomaly
9.17736°
Mean anomaly
9.0408°
Eccentric anomaly
9.10895°
Mean motion
3.20027 °/min
Orbital period
112.49 mins
BSTAR
0.0020887
Loading maneuver chart data...
Computing Atmospheric mass density...
Loading historical data...
Loading historical data...
Loading historical data...
Loading historical data...
Loading historical data...
Loading historical data...
Loading historical data...

Documentation

Showing up to 5 results
|